User: anonymous   Login
Location: Bergen
(60.3910°N, 5.3250°E)
Time: 10:18:59
(UTC+02:00)
Language:

Cosmos 1943 - Orbit

View from above orbital plane
View from above orbital plane
View from above satellite
View from above satellite

Ground track
Ground track

The orbit data is extracted from the following two-line orbital elements,

1 19119U 88039A   16273.18661593  .00000077  00000-0  64333-4 0  9994
2 19119  71.0016 289.8783 0009230  95.8813 329.0076 14.15071403465177
Epoch (UTC): 29 September 2016 04:28:43
Eccentricity: 0.0009230
inclination: 71.0016°
perigee height: 835 km
apogee height: 849 km
right ascension of ascending node: 289.8783°
argument of perigee: 95.8813°
revolutions per day: 14.15071403
mean anomaly at epoch: 329.0076°
orbit number at epoch: 46517

The dashed part of the orbit path shows where the satellite is in the earth's shadow,  

DLR